Location: Asheville, NC
(35.6000°N, 82.5500°W)
Time: 09:43:18
(UTC-04:00)

Vanguard 3 - Pass Details

Date: 13 March 2018
Orbit: 508 x 3264 km, 33.3° (Epoch: 24 June)

Event Time Altitude Azimuth Distance (km) Brightness Sun altitude
Rises 07:29:48 0° 212° (SSW) 6,843 11.6 -3.7°
Reaches altitude 10° 07:34:42 10° 205° (SSW) 6,026 11.4 -2.7°
Maximum altitude 07:51:52 39° 145° (SE) 4,188 11.3 0.8°
Drops below altitude 10° 08:06:56 10° 85° (E) 5,370 13.5 3.9°
Sets 08:10:55 0° 78° (ENE) 6,065 13.3 4.7°
